Location: site
(53.0000°N, 23.0500°E)
Time: 17:27:44
(UTC+01:00)

SAOCOM 1-A - Pass Details

Date: 26 January 2020
Orbit: 621 x 623 km, 97.9° (Epoch: 25 February)

Event Time Altitude Azimuth Distance (km) Brightness Sun altitude
Exits shadow 16:41:40 - 27° (NNE) 2,845 ? -6.5°
Reaches altitude 10° 16:44:18 10° 45° (NE) 2,003 ? -6.8°
Maximum altitude 16:47:18 18° 89° (E) 1,535 ? -7.2°
Drops below altitude 10° 16:50:18 10° 133° (SE) 1,991 ? -7.7°
Sets 16:53:05 0° 153° (SSE) 2,891 ? -8.0°
